User: anonymous   Login
Location: Kikino
(54.4440°N, 112.0940°W)
Time: 05:02:23
(UTC+00:00)
Language:

Courier 1B - Orbit

View from above orbital plane
View from above orbital plane
View from above satellite
View from above satellite

Ground track
Ground track

The orbit data is extracted from the following two-line orbital elements,

1    58U 60013A   24144.09417651  .00000140  00000-0  86421-4 0  9991
2    58  28.3291  11.0564 0164821  75.4355 286.4408 13.46376116132767
Epoch (UTC): 23 May 2024 02:15:36
Eccentricity: 0.0164821
inclination: 28.3291°
perigee height: 962 km
apogee height: 1208 km
right ascension of ascending node: 11.0564°
argument of perigee: 75.4355°
revolutions per day: 13.46376116
mean anomaly at epoch: 286.4408°
orbit number at epoch: 13276

The dashed part of the orbit path shows where the satellite is in the earth's shadow,  

DLR